FPO8AD LEMD-LFPG

Flight info

Callsign FPO8AD
Flight time 1h 31m
Altitude 34000
Route RBO N867 DGO DCT ABRIX DCT CNA DCT POI/N0416F300 DCT PEPAX UT182 KEPER
Aircraft B738/M-SDE2E3FGHIRWXY/LB1

Departure

Time 2026-04-30 07:58
Airport Adolfo Suárez Madrid–Barajas Airport (LEMD)

Arrival

Time 2026-04-30 09:29
Airport Charles de Gaulle International Airport (LFPG)
Time Latitude Longitude Altitude Speed Heading
2026-04-30 07:27 40.49169 -3.58727 2023 ft 0 kts 270°
2026-04-30 07:52 40.49170 -3.58742 2033 ft 6 kts 279°
2026-04-30 07:53 40.49210 -3.58733 2026 ft 13 kts 55°
2026-04-30 07:53 40.49241 -3.58550 2017 ft 27 kts 89°
2026-04-30 07:53 40.49241 -3.58308 2008 ft 18 kts 90°
2026-04-30 07:53 40.49240 -3.58133 2004 ft 20 kts 90°
2026-04-30 07:54 40.49241 -3.57935 1998 ft 23 kts 89°
2026-04-30 07:54 40.49243 -3.57791 1992 ft 25 kts 89°
2026-04-30 07:54 40.49250 -3.57614 1986 ft 14 kts 75°
2026-04-30 07:54 40.49261 -3.57580 1986 ft 0 kts 63°
2026-04-30 07:55 40.49264 -3.57572 1987 ft 4 kts 63°
2026-04-30 07:55 40.49282 -3.57534 1986 ft 12 kts 53°
2026-04-30 07:56 40.49366 -3.57465 1986 ft 16 kts 15°
2026-04-30 07:56 40.49430 -3.57452 1982 ft 0 kts
2026-04-30 07:57 40.49435 -3.57452 1982 ft 5 kts
2026-04-30 07:57 40.49694 -3.57456 1984 ft 74 kts 359°
2026-04-30 07:58 40.50448 -3.57459 1991 ft 140 kts 360°
2026-04-30 07:58 40.51605 -3.57467 2123 ft 183 kts 359°
2026-04-30 07:58 40.52874 -3.57493 2901 ft 187 kts 359°
2026-04-30 07:58 40.54260 -3.57523 3447 ft 207 kts 358°
2026-04-30 07:59 40.55739 -3.57402 3951 ft 222 kts 13°
2026-04-30 07:59 40.57204 -3.56742 4598 ft 226 kts 20°
2026-04-30 07:59 40.58725 -3.56066 5221 ft 234 kts 15°
2026-04-30 08:00 40.61931 -3.54885 6619 ft 252 kts 14°
2026-04-30 08:00 40.63613 -3.54278 7469 ft 252 kts 11°
2026-04-30 08:00 40.65358 -3.53982 8265 ft 254 kts
2026-04-30 08:00 40.67189 -3.53852 8726 ft 275 kts
2026-04-30 08:01 40.69164 -3.53644 9232 ft 293 kts 12°
2026-04-30 08:01 40.70978 -3.52382 9997 ft 302 kts 44°
2026-04-30 08:01 40.72292 -3.50194 10684 ft 312 kts 54°
2026-04-30 08:01 40.73565 -3.47729 10882 ft 338 kts 56°
2026-04-30 08:02 40.76281 -3.42356 12010 ft 360 kts 55°
2026-04-30 08:02 40.77689 -3.39603 12787 ft 364 kts 54°
2026-04-30 08:03 40.80581 -3.34007 14241 ft 374 kts 54°
2026-04-30 08:03 40.83543 -3.28295 15675 ft 379 kts 53°
2026-04-30 08:03 40.85342 -3.25767 16327 ft 379 kts 33°
2026-04-30 08:04 40.87665 -3.24175 17008 ft 376 kts 13°
2026-04-30 08:04 40.90222 -3.23467 17718 ft 376 kts
2026-04-30 08:04 40.92821 -3.22930 18389 ft 380 kts
2026-04-30 08:04 40.95449 -3.22406 18963 ft 384 kts
2026-04-30 08:05 40.98098 -3.21856 19563 ft 387 kts
2026-04-30 08:05 41.00766 -3.21275 20145 ft 391 kts
2026-04-30 08:05 41.03457 -3.20675 20714 ft 394 kts
2026-04-30 08:05 41.06159 -3.20068 21282 ft 397 kts
2026-04-30 08:06 41.08893 -3.19451 21848 ft 400 kts
2026-04-30 08:06 41.11647 -3.18828 22428 ft 403 kts
2026-04-30 08:06 41.14420 -3.18199 22972 ft 406 kts
2026-04-30 08:06 41.17221 -3.17564 23517 ft 410 kts
2026-04-30 08:07 41.20040 -3.16925 23990 ft 413 kts
2026-04-30 08:07 41.22884 -3.16279 24422 ft 416 kts
2026-04-30 08:07 41.25742 -3.15630 24840 ft 419 kts
2026-04-30 08:07 41.28626 -3.14974 25259 ft 422 kts
2026-04-30 08:08 41.31528 -3.14314 25674 ft 425 kts
2026-04-30 08:08 41.34451 -3.13648 26101 ft 427 kts
2026-04-30 08:08 41.37392 -3.12977 26526 ft 430 kts
2026-04-30 08:08 41.40349 -3.12301 26923 ft 433 kts
2026-04-30 08:09 41.43328 -3.11620 27316 ft 436 kts
2026-04-30 08:09 41.46326 -3.10935 27704 ft 438 kts
2026-04-30 08:09 41.49340 -3.10245 28090 ft 441 kts
2026-04-30 08:09 41.52371 -3.09554 28462 ft 443 kts
2026-04-30 08:10 41.55420 -3.08864 28824 ft 446 kts
2026-04-30 08:10 41.58490 -3.08171 29181 ft 448 kts
2026-04-30 08:10 41.61530 -3.07484 29532 ft 451 kts
2026-04-30 08:10 41.64626 -3.06782 29965 ft 451 kts
2026-04-30 08:11 41.67711 -3.06080 30427 ft 449 kts
2026-04-30 08:11 41.70786 -3.05381 30822 ft 448 kts
2026-04-30 08:11 41.73858 -3.04682 31142 ft 449 kts
2026-04-30 08:11 41.76944 -3.03977 31478 ft 450 kts
2026-04-30 08:12 41.80030 -3.03268 31827 ft 450 kts
2026-04-30 08:12 41.83113 -3.02558 32202 ft 449 kts
2026-04-30 08:12 41.86196 -3.01847 32545 ft 450 kts
2026-04-30 08:12 41.89277 -3.01137 32902 ft 450 kts
2026-04-30 08:13 41.92364 -3.00424 33227 ft 450 kts
2026-04-30 08:13 41.95454 -2.99711 33533 ft 451 kts
2026-04-30 08:13 41.98545 -2.98996 33863 ft 451 kts
2026-04-30 08:13 42.01640 -2.98280 34084 ft 453 kts
2026-04-30 08:14 42.04771 -2.97559 34075 ft 459 kts
2026-04-30 08:14 42.11148 -2.96084 34086 ft 471 kts
2026-04-30 08:15 42.17676 -2.94566 34080 ft 480 kts
2026-04-30 08:15 42.24300 -2.93020 34074 ft 486 kts
2026-04-30 08:16 42.30966 -2.91460 34068 ft 486 kts
2026-04-30 08:16 42.37625 -2.89900 34079 ft 486 kts
2026-04-30 08:17 42.44273 -2.88163 34058 ft 490 kts 11°
2026-04-30 08:17 42.50558 -2.84416 34088 ft 498 kts 25°
2026-04-30 08:18 42.56576 -2.79758 34078 ft 498 kts 26°
2026-04-30 08:18 42.62582 -2.75088 34071 ft 497 kts 25°
2026-04-30 08:19 42.68597 -2.70487 34079 ft 496 kts 25°
2026-04-30 08:19 42.74615 -2.65917 34082 ft 495 kts 25°
2026-04-30 08:20 42.80630 -2.61344 34078 ft 495 kts 25°
2026-04-30 08:20 42.86643 -2.56759 34077 ft 495 kts 25°
2026-04-30 08:21 42.92642 -2.52170 34080 ft 494 kts 26°
2026-04-30 08:21 42.98634 -2.47575 34069 ft 493 kts 26°
2026-04-30 08:22 43.04607 -2.42985 34047 ft 492 kts 26°
2026-04-30 08:22 43.10563 -2.38398 34060 ft 491 kts 26°
2026-04-30 08:23 43.16466 -2.33842 34050 ft 490 kts 27°
2026-04-30 08:23 43.22397 -2.29255 34047 ft 489 kts 27°
2026-04-30 08:24 43.28323 -2.24660 34045 ft 489 kts 27°
2026-04-30 08:24 43.34238 -2.20064 34045 ft 488 kts 28°
2026-04-30 08:25 43.40137 -2.15469 34051 ft 487 kts 28°
2026-04-30 08:25 43.46035 -2.10865 34054 ft 487 kts 29°
2026-04-30 08:26 43.51917 -2.06262 34053 ft 486 kts 29°
2026-04-30 08:26 43.57803 -2.01646 34050 ft 487 kts 29°
2026-04-30 08:27 43.63686 -1.97022 34049 ft 487 kts 29°
2026-04-30 08:27 43.69581 -1.92380 34043 ft 488 kts 30°
2026-04-30 08:28 43.75478 -1.87724 34041 ft 489 kts 30°
2026-04-30 08:28 43.81386 -1.83049 34041 ft 489 kts 30°
2026-04-30 08:29 43.87300 -1.78356 34041 ft 490 kts 30°
2026-04-30 08:29 43.93222 -1.73646 34041 ft 491 kts 30°
2026-04-30 08:30 43.99145 -1.68926 34040 ft 491 kts 30°
2026-04-30 08:30 44.05066 -1.64195 34045 ft 491 kts 30°
2026-04-30 08:31 44.10981 -1.59458 34044 ft 490 kts 31°
2026-04-30 08:31 44.16921 -1.54690 34037 ft 489 kts 31°
2026-04-30 08:32 44.22810 -1.49952 34041 ft 488 kts 31°
2026-04-30 08:32 44.28689 -1.45211 34049 ft 488 kts 31°
2026-04-30 08:33 44.34554 -1.40470 34049 ft 487 kts 31°
2026-04-30 08:33 44.40411 -1.35725 34049 ft 486 kts 31°
2026-04-30 08:34 44.46211 -1.31014 34048 ft 485 kts 31°
2026-04-30 08:34 44.52036 -1.26273 34045 ft 484 kts 32°
2026-04-30 08:35 44.57849 -1.21530 34047 ft 483 kts 32°
2026-04-30 08:35 44.63649 -1.16787 34049 ft 482 kts 32°
2026-04-30 08:36 44.69438 -1.12042 34046 ft 481 kts 32°
2026-04-30 08:36 44.75206 -1.07303 34054 ft 480 kts 32°
2026-04-30 08:37 44.80963 -1.02562 34067 ft 479 kts 32°
2026-04-30 08:37 44.86705 -0.97822 34066 ft 477 kts 32°
2026-04-30 08:38 44.92426 -0.93089 34069 ft 476 kts 32°
2026-04-30 08:38 44.97169 -0.89156 34070 ft 475 kts 32°
2026-04-30 08:39 45.02858 -0.84428 34063 ft 474 kts 33°
2026-04-30 08:39 45.08525 -0.79708 34064 ft 472 kts 33°
2026-04-30 08:40 45.14178 -0.74989 34056 ft 471 kts 33°
2026-04-30 08:40 45.19806 -0.70279 34056 ft 469 kts 33°
2026-04-30 08:41 45.25423 -0.65568 34054 ft 468 kts 34°
2026-04-30 08:41 45.31016 -0.60867 34059 ft 467 kts 34°
2026-04-30 08:42 45.36611 -0.56151 34055 ft 467 kts 34°
2026-04-30 08:42 45.42186 -0.51443 34053 ft 466 kts 34°
2026-04-30 08:43 45.47767 -0.46718 34051 ft 466 kts 34°
2026-04-30 08:43 45.53333 -0.41994 34046 ft 466 kts 34°
2026-04-30 08:44 45.58914 -0.37246 34046 ft 466 kts 34°
2026-04-30 08:44 45.64482 -0.32500 34045 ft 466 kts 34°
2026-04-30 08:45 45.70265 -0.28229 34051 ft 469 kts 28°
2026-04-30 08:45 45.76238 -0.24415 34041 ft 470 kts 27°
2026-04-30 08:46 45.82213 -0.20604 34051 ft 470 kts 27°
2026-04-30 08:46 45.88164 -0.16736 34051 ft 470 kts 27°
2026-04-30 08:47 45.94115 -0.12829 34033 ft 470 kts 27°
2026-04-30 08:47 46.00058 -0.08912 34051 ft 470 kts 27°
2026-04-30 08:48 46.06006 -0.04985 34049 ft 470 kts 27°
2026-04-30 08:48 46.11957 -0.01048 34048 ft 471 kts 27°
2026-04-30 08:49 46.17921 0.02906 34050 ft 472 kts 27°
2026-04-30 08:49 46.23887 0.06872 34048 ft 472 kts 27°
2026-04-30 08:50 46.29813 0.10819 34053 ft 472 kts 27°
2026-04-30 08:50 46.35774 0.14800 34060 ft 472 kts 27°
2026-04-30 08:51 46.41000 0.18299 34068 ft 472 kts 27°
2026-04-30 08:51 46.46951 0.22291 34070 ft 471 kts 27°
2026-04-30 08:52 46.52885 0.26282 34077 ft 470 kts 27°
2026-04-30 08:52 46.58891 0.30074 34070 ft 472 kts 19°
2026-04-30 08:53 46.65297 0.32196 34065 ft 473 kts 13°
2026-04-30 08:53 46.71741 0.34049 34060 ft 471 kts 13°
2026-04-30 08:54 46.78146 0.35971 34058 ft 469 kts 14°
2026-04-30 08:54 46.84525 0.37945 34066 ft 468 kts 14°
2026-04-30 08:55 46.90898 0.39931 34061 ft 468 kts 14°
2026-04-30 08:55 46.97254 0.41911 34062 ft 467 kts 14°
2026-04-30 08:56 47.03610 0.43895 34058 ft 467 kts 14°
2026-04-30 08:56 47.10040 0.44844 34061 ft 470 kts 359°
2026-04-30 08:57 47.16416 0.43461 34069 ft 459 kts 352°
2026-04-30 08:57 47.22719 0.41784 33971 ft 458 kts 352°
2026-04-30 08:57 47.25877 0.40975 33340 ft 460 kts 352°
2026-04-30 08:58 47.28980 0.40200 32705 ft 458 kts 352°
2026-04-30 08:58 47.32121 0.39428 32020 ft 458 kts 352°
2026-04-30 08:58 47.35242 0.38665 31566 ft 452 kts 352°
2026-04-30 08:58 47.38334 0.37907 31059 ft 449 kts 352°
2026-04-30 08:59 47.41398 0.37155 30582 ft 445 kts 352°
2026-04-30 08:59 47.44442 0.36406 30101 ft 441 kts 352°
2026-04-30 08:59 47.47455 0.35662 29550 ft 437 kts 352°
2026-04-30 08:59 47.50443 0.34923 29062 ft 432 kts 352°
2026-04-30 09:00 47.53392 0.34191 28577 ft 428 kts 352°
2026-04-30 09:00 47.56317 0.33464 28091 ft 424 kts 352°
2026-04-30 09:00 47.59214 0.32743 27594 ft 421 kts 352°
2026-04-30 09:00 47.62101 0.32024 27131 ft 421 kts 352°
2026-04-30 09:01 47.65005 0.31301 26647 ft 423 kts 352°
2026-04-30 09:01 47.67899 0.30579 26166 ft 420 kts 351°
2026-04-30 09:01 47.70767 0.29863 25692 ft 417 kts 351°
2026-04-30 09:01 47.73617 0.29150 25230 ft 414 kts 351°
2026-04-30 09:02 47.79276 0.28130 24285 ft 407 kts
2026-04-30 09:02 47.81993 0.29092 23943 ft 398 kts 25°
2026-04-30 09:02 47.84362 0.31101 23641 ft 389 kts 37°
2026-04-30 09:03 47.86554 0.33439 23292 ft 387 kts 38°
2026-04-30 09:03 47.88733 0.35818 22980 ft 390 kts 38°
2026-04-30 09:03 47.90948 0.38189 22645 ft 392 kts 38°
2026-04-30 09:03 47.93173 0.40531 22338 ft 389 kts 38°
2026-04-30 09:04 47.95384 0.42845 22026 ft 387 kts 38°
2026-04-30 09:04 47.97580 0.45144 21726 ft 384 kts 38°
2026-04-30 09:04 47.99763 0.47430 21443 ft 382 kts 38°
2026-04-30 09:04 48.01930 0.49705 21158 ft 381 kts 39°
2026-04-30 09:05 48.04093 0.51984 20867 ft 380 kts 39°
2026-04-30 09:05 48.06246 0.54252 20567 ft 379 kts 39°
2026-04-30 09:05 48.08395 0.56520 20273 ft 378 kts 39°
2026-04-30 09:05 48.10537 0.58780 19983 ft 376 kts 39°
2026-04-30 09:06 48.12672 0.61034 19689 ft 375 kts 39°
2026-04-30 09:06 48.14797 0.63282 19415 ft 374 kts 39°
2026-04-30 09:06 48.16915 0.65524 19120 ft 372 kts 40°
2026-04-30 09:06 48.19025 0.67762 18839 ft 371 kts 40°
2026-04-30 09:07 48.21129 0.69994 18549 ft 369 kts 40°
2026-04-30 09:07 48.23220 0.72215 18255 ft 368 kts 40°
2026-04-30 09:07 48.25303 0.74432 17934 ft 366 kts 40°
2026-04-30 09:07 48.27372 0.76634 17634 ft 364 kts 40°
2026-04-30 09:08 48.29428 0.78824 17348 ft 361 kts 40°
2026-04-30 09:08 48.31470 0.81001 17080 ft 359 kts 40°
2026-04-30 09:08 48.33500 0.83178 16805 ft 357 kts 42°
2026-04-30 09:08 48.35183 0.85809 16515 ft 346 kts 62°
2026-04-30 09:09 48.36340 0.88946 16287 ft 341 kts 67°
2026-04-30 09:09 48.37403 0.92127 16024 ft 340 kts 67°
2026-04-30 09:09 48.38465 0.95304 15751 ft 340 kts 66°
2026-04-30 09:09 48.39546 0.98473 15496 ft 340 kts 66°
2026-04-30 09:10 48.40633 1.01627 15233 ft 339 kts 66°
2026-04-30 09:10 48.41720 1.04772 14948 ft 339 kts 66°
2026-04-30 09:10 48.42810 1.07931 14641 ft 340 kts 66°
2026-04-30 09:10 48.43899 1.11093 14322 ft 340 kts 66°
2026-04-30 09:11 48.44983 1.14245 14003 ft 338 kts 66°
2026-04-30 09:11 48.46058 1.17376 13668 ft 335 kts 66°
2026-04-30 09:11 48.47125 1.20485 13331 ft 335 kts 66°
2026-04-30 09:11 48.48192 1.23598 13000 ft 332 kts 65°
2026-04-30 09:12 48.49241 1.26663 12693 ft 326 kts 65°
2026-04-30 09:12 48.50272 1.29677 12376 ft 321 kts 65°
2026-04-30 09:12 48.51287 1.32646 12101 ft 315 kts 65°
2026-04-30 09:12 48.52279 1.35540 11938 ft 306 kts 66°
2026-04-30 09:13 48.53244 1.38346 11783 ft 298 kts 65°
2026-04-30 09:13 48.54187 1.41093 11642 ft 293 kts 66°
2026-04-30 09:13 48.55120 1.43817 11503 ft 291 kts 66°
2026-04-30 09:13 48.56048 1.46529 11347 ft 290 kts 65°
2026-04-30 09:14 48.57009 1.49203 11186 ft 291 kts 58°
2026-04-30 09:14 48.58470 1.51346 10984 ft 300 kts 34°
2026-04-30 09:14 48.60325 1.52798 10817 ft 302 kts 29°
2026-04-30 09:14 48.62227 1.54174 10609 ft 303 kts 29°
2026-04-30 09:15 48.64118 1.55532 10366 ft 299 kts 28°
2026-04-30 09:15 48.65976 1.56881 10164 ft 294 kts 29°
2026-04-30 09:15 48.67788 1.58207 10031 ft 286 kts 29°
2026-04-30 09:15 48.69580 1.59527 9764 ft 284 kts 29°
2026-04-30 09:16 48.71344 1.60836 9534 ft 280 kts 30°
2026-04-30 09:16 48.73080 1.62121 9349 ft 276 kts 29°
2026-04-30 09:16 48.74733 1.63582 9209 ft 277 kts 46°
2026-04-30 09:16 48.75885 1.65874 9078 ft 274 kts 63°
2026-04-30 09:17 48.76810 1.68433 8794 ft 276 kts 65°
2026-04-30 09:17 48.77700 1.70979 8573 ft 271 kts 65°
2026-04-30 09:17 48.78571 1.73473 8377 ft 265 kts 65°
2026-04-30 09:17 48.79431 1.75922 8186 ft 261 kts 65°
2026-04-30 09:18 48.80281 1.78335 8027 ft 258 kts 65°
2026-04-30 09:18 48.81127 1.80737 7837 ft 258 kts 65°
2026-04-30 09:18 48.81973 1.83124 7640 ft 257 kts 65°
2026-04-30 09:18 48.82815 1.85498 7459 ft 254 kts 65°
2026-04-30 09:19 48.83647 1.87844 7284 ft 251 kts 64°
2026-04-30 09:19 48.84471 1.90166 7115 ft 248 kts 65°
2026-04-30 09:19 48.85283 1.92457 6930 ft 246 kts 65°
2026-04-30 09:19 48.86092 1.94738 6762 ft 242 kts 65°
2026-04-30 09:20 48.86874 1.96955 6586 ft 241 kts 65°
2026-04-30 09:20 48.87673 1.99176 6401 ft 239 kts 62°
2026-04-30 09:20 48.88741 2.01093 6232 ft 237 kts 48°
2026-04-30 09:20 48.89948 2.02777 6075 ft 234 kts 47°
2026-04-30 09:21 48.91148 2.04410 5922 ft 228 kts 46°
2026-04-30 09:21 48.92312 2.05991 5769 ft 220 kts 47°
2026-04-30 09:21 48.93434 2.07537 5468 ft 216 kts 47°
2026-04-30 09:21 48.94516 2.09042 5313 ft 205 kts 47°
2026-04-30 09:22 48.95538 2.10470 5153 ft 195 kts 48°
2026-04-30 09:22 48.96525 2.11858 5009 ft 192 kts 47°
2026-04-30 09:22 48.97500 2.13228 4852 ft 189 kts 48°
2026-04-30 09:22 48.98456 2.14582 4737 ft 187 kts 48°
2026-04-30 09:23 48.99417 2.15941 4610 ft 190 kts 48°
2026-04-30 09:23 49.00196 2.17528 4429 ft 187 kts 78°
2026-04-30 09:23 49.00447 2.19443 4324 ft 185 kts 81°
2026-04-30 09:23 49.00720 2.21351 4216 ft 180 kts 83°
2026-04-30 09:24 49.00905 2.23134 4138 ft 163 kts 87°
2026-04-30 09:24 49.00987 2.24245 4035 ft 154 kts 89°
2026-04-30 09:24 49.01082 2.25841 3840 ft 150 kts 89°
2026-04-30 09:24 49.01162 2.27426 3630 ft 149 kts 90°
2026-04-30 09:25 49.01245 2.29015 3435 ft 153 kts 89°
2026-04-30 09:25 49.01334 2.30603 3249 ft 148 kts 90°
2026-04-30 09:25 49.01416 2.32173 3077 ft 149 kts 90°
2026-04-30 09:25 49.01495 2.33734 2841 ft 145 kts 90°
2026-04-30 09:26 49.01600 2.35727 2556 ft 145 kts 89°
2026-04-30 09:26 49.01663 2.37226 2369 ft 138 kts 89°
2026-04-30 09:26 49.01705 2.38200 2271 ft 136 kts 93°
2026-04-30 09:26 49.01813 2.40106 2031 ft 136 kts 89°
2026-04-30 09:27 49.01896 2.41523 1839 ft 133 kts 90°
2026-04-30 09:27 49.01973 2.42921 1649 ft 133 kts 90°
2026-04-30 09:27 49.02020 2.43898 1550 ft 141 kts 89°
2026-04-30 09:27 49.02097 2.45393 1344 ft 140 kts 88°
2026-04-30 09:28 49.02179 2.46864 1166 ft 138 kts 88°
2026-04-30 09:28 49.02255 2.48298 933 ft 135 kts 87°
2026-04-30 09:28 49.02325 2.49694 756 ft 132 kts 86°
2026-04-30 09:28 49.02394 2.51075 580 ft 129 kts 87°
2026-04-30 09:29 49.02474 2.52434 407 ft 127 kts 87°
2026-04-30 09:29 49.02539 2.53718 362 ft 109 kts 85°
2026-04-30 09:29 49.02588 2.54648 351 ft 67 kts 85°
2026-04-30 09:29 49.02594 2.55174 363 ft 41 kts 103°
2026-04-30 09:30 49.02514 2.55459 357 ft 9 kts 114°
2026-04-30 09:30 49.02513 2.55465 356 ft 0 kts 114°
2026-04-30 09:30 49.02502 2.55502 361 ft 10 kts 114°
2026-04-30 09:30 49.02423 2.55608 359 ft 19 kts 169°
2026-04-30 09:31 49.02274 2.55624 359 ft 23 kts 174°
2026-04-30 09:31 49.02125 2.55645 356 ft 18 kts 178°
2026-04-30 09:31 49.02063 2.55504 359 ft 19 kts 264°
2026-04-30 09:31 49.02051 2.55280 354 ft 24 kts 266°
2026-04-30 09:32 49.02039 2.55015 354 ft 25 kts 265°
2026-04-30 09:32 49.02024 2.54760 354 ft 23 kts 265°
2026-04-30 09:32 49.02012 2.54553 354 ft 16 kts 265°
2026-04-30 09:32 49.02005 2.54382 360 ft 16 kts 267°
2026-04-30 09:33 49.01983 2.54199 360 ft 20 kts 240°
2026-04-30 09:33 49.01897 2.54039 360 ft 20 kts 256°
2026-04-30 09:33 49.01885 2.53815 357 ft 24 kts 264°
2026-04-30 09:33 49.01867 2.53558 359 ft 24 kts 264°
2026-04-30 09:34 49.01855 2.53315 354 ft 23 kts 266°
2026-04-30 09:34 49.01846 2.53090 354 ft 19 kts 266°
2026-04-30 09:34 49.01835 2.52894 354 ft 19 kts 264°
2026-04-30 09:34 49.01823 2.52698 354 ft 19 kts 264°
2026-04-30 09:35 49.01812 2.52506 355 ft 18 kts 265°
2026-04-30 09:35 49.01806 2.52345 354 ft 15 kts 265°
2026-04-30 09:35 49.01782 2.52174 362 ft 19 kts 228°
2026-04-30 09:35 49.01699 2.52038 360 ft 19 kts 264°
2026-04-30 09:36 49.01696 2.51843 353 ft 18 kts 273°
2026-04-30 09:36 49.01683 2.51674 353 ft 16 kts 258°
2026-04-30 09:36 49.01687 2.51509 357 ft 15 kts 267°
2026-04-30 09:36 49.01663 2.51345 349 ft 16 kts 259°
2026-04-30 09:37 49.01649 2.51179 349 ft 16 kts 269°
2026-04-30 09:37 49.01639 2.51008 355 ft 18 kts 264°
2026-04-30 09:37 49.01630 2.50807 352 ft 19 kts 265°
2026-04-30 09:37 49.01620 2.50609 349 ft 18 kts 265°
2026-04-30 09:38 49.01591 2.50453 356 ft 11 kts 216°
2026-04-30 09:38 49.01491 2.50436 349 ft 13 kts 178°
2026-04-30 09:38 49.01428 2.50359 359 ft 12 kts 261°
2026-04-30 09:38 49.01451 2.50327 354 ft 4 kts 353°
2026-04-30 09:39 49.01492 2.50325 351 ft 3 kts 353°
2026-04-30 09:39 49.01499 2.50323 350 ft 0 kts 349°